FW0683 Weather Reports


time (UTC)temp
C
wind
direction
speed
KPH
gust
KPH
rain 1hr
cm
rain 24hr
cm
rain mn
cm
humidity
%
barometer
mb
20260902100032 16 88 0.0 0.0 0.00 0.56 0.00 94 1025.6
20260902094533 16 87 0.0 0.0 0.00 0.56 0.00 94 1025.4
20260902093036 16 87 0.0 0.0 0.00 0.56 0.00 94 1025.4
20260902091529 16 87 0.0 0.0 0.00 0.56 0.00 94 1025.3
20260902090029 16 87 0.0 0.0 0.00 0.56 0.00 94 1025.1
20260902084528 16 87 0.0 0.0 0.00 0.56 0.00 94 1025.2
20260902083028 16 88 0.0 0.0 0.00 0.56 0.00 94 1025.3
20260902081527 16 88 0.0 0.0 0.00 0.56 0.00 94 1025.3
20260902080028 16 87 0.0 0.0 0.00 0.56 0.00 94 1025.4
20260902074526 16 87 0.0 0.0 0.00 0.56 0.00 94 1025.4
20260902073026 16 88 0.0 0.0 0.00 0.56 0.00 94 1025.3
20260902071525 16 87 0.0 0.0 0.00 0.56 0.00 94 1025.2
20260902070024 16 87 0.0 0.0 0.00 0.56 0.00 94 1025.0
20260902064523 16 87 0.0 0.0 0.00 0.56 0.00 94 1025.1
20260902063023 16 87 0.0 0.0 0.00 0.56 0.00 94 1025.0
20260902061539 16 87 0.0 0.0 0.00 0.56 0.00 94 1025.0
20260902060022 16 87 0.0 0.0 0.00 0.56 0.00 94 1025.2
20260902054521 16 87 0.0 0.0 0.00 0.56 0.00 94 1025.2
20260902053020 16 87 0.0 0.0 0.00 0.56 0.00 94 1025.1
20260902051517 16 87 0.0 0.0 0.00 0.56 0.00 94 1024.8
20260902050017 16 87 0.0 0.0 0.00 0.56 0.00 94 1024.6
20260902044514 16 87 0.0 0.0 0.00 0.56 0.00 94 1024.3
20260902043012 16 87 0.0 0.0 0.00 0.56 0.00 94 1024.0
20260902041511 16 87 0.0 0.0 0.00 0.56 0.00 94 1024.0
20260902040011 16 87 0.0 0.0 0.00 0.56 0.56 94 1023.7
20260902034512 16 87 0.0 0.0 0.00 0.56 0.56 93 1023.6
20260902033017 16 87 0.0 0.0 0.00 0.56 0.56 93 1023.6
20260902031508 16 87 0.0 0.0 0.00 0.56 0.56 93 1023.5
20260902030008 16 87 0.0 0.0 0.00 0.56 0.56 93 1023.4
20260902024507 16 87 0.0 0.0 0.00 0.56 0.56 93 1023.5
20260902023007 16 87 0.0 0.0 0.00 0.56 0.56 93 1023.5
20260902021521 16 87 0.0 0.0 0.00 0.56 0.56 93 1023.5
20260902020008 16 87 0.0 0.0 0.00 0.56 0.56 93 1023.5
20260902014505 16 87 0.0 0.0 0.00 0.56 0.56 93 1023.8
20260902013004 17 88 0.0 0.0 0.00 0.56 0.56 92 1023.6
20260902011503 17 87 0.0 0.0 0.00 0.56 0.56 92 1023.6
20260902010002 17 87 0.0 0.0 0.00 0.56 0.56 92 1023.5
20260902004503 17 87 0.0 0.0 0.00 0.56 0.56 92 1023.3
20260902003001 17 87 0.0 0.0 0.00 0.56 0.56 92 1023.3
20260902001559 17 87 0.0 0.0 0.00 0.56 0.56 91 1023.1
20260902000059 17 88 0.0 0.0 0.00 0.56 0.56 90 1022.7
20260901234559 17 87 0.0 0.0 0.00 0.56 0.56 90 1022.9
20260901233058 17 87 0.0 0.0 0.00 0.56 0.56 89 1023.1
20260901231558 18 87 0.0 0.0 0.00 0.56 0.56 89 1023.1
20260901230057 18 87 0.0 0.0 0.00 0.56 0.56 88 1023.0
20260901224558 18 87 0.0 0.0 0.00 0.56 0.56 87 1022.8
20260901223054 18 98 0.0 0.0 0.00 0.56 0.56 86 1022.7
20260901221554 18 95 0.0 0.0 0.00 0.56 0.56 86 1022.7
20260901220057 19 95 0.0 0.0 0.00 0.56 0.56 85 1022.6
20260901214554 19 90 0.0 0.0 0.00 0.56 0.56 85 1022.5
20260901213051 19 94 0.0 0.0 0.00 0.56 0.56 86 1022.6
20260901211550 19 93 0.0 0.0 0.00 0.56 0.56 85 1022.5
20260901210050 19 76 0.0 0.0 0.00 0.56 0.56 85 1022.4
20260901204549 19 89 0.0 0.0 0.00 0.56 0.56 85 1022.3
20260901203050 19 84 0.0 0.0 0.00 0.56 0.56 85 1022.0
20260901201547 19 85 0.0 0.0 0.00 0.56 0.56 85 1022.1
20260901194556 18 108 0.0 0.0 0.00 0.56 0.56 86 1022.0
20260901193047 18 6 0.0 0.0 0.00 0.56 0.56 86 1022.2
20260901191545 18 100 0.0 0.0 0.00 0.56 0.56 87 1022.3
20260901190050 18 98 0.0 0.0 0.00 0.56 0.56 87 1022.4
20260901184546 18 94 0.0 0.0 0.00 0.56 0.56 88 1022.4
20260901183038 18 94 0.0 0.0 0.00 0.56 0.56 89 1022.2
20260901181537 18 88 0.0 0.0 0.03 0.56 0.56 89 1022.3
20260901180034 18 73 0.0 0.0 0.03 0.56 0.56 90 1022.0
20260901174539 17 59 0.0 0.0 0.03 0.56 0.56 90 1022.0
20260901173035 17 89 0.0 0.0 0.03 0.56 0.56 90 1021.8
20260901171531 17 82 0.0 0.0 0.00 0.53 0.53 90 1021.9
20260901170029 17 41 0.0 0.0 0.00 0.53 0.53 89 1021.9
20260901164529 17 41 0.0 0.0 0.00 0.53 0.53 90 1022.0
20260901163033 17 41 0.0 0.0 0.00 0.53 0.53 89 1022.2
20260901161526 17 97 0.0 0.0 0.00 0.53 0.53 90 1022.5
20260901160024 17 80 0.0 0.0 0.00 0.53 0.53 90 1022.3
20260901154524 17 79 0.0 0.0 0.00 0.53 0.53 90 1022.0
20260901153023 17 344 0.0 0.0 0.00 0.53 0.53 90 1021.8
20260901151530 16 103 0.0 0.0 0.00 0.53 0.53 91 1022.1
20260901150024 16 329 0.0 0.0 0.00 0.53 0.53 92 1022.0
20260901144521 16 82 0.0 0.0 0.03 0.53 0.53 93 1022.1
20260901143017 15 96 0.0 0.0 0.08 0.53 0.53 94 1022.1
20260901141513 15 95 0.0 0.0 0.10 0.53 0.53 94 1021.9
20260901140010 15 94 0.0 0.0 0.13 0.53 0.53 94 1022.0
20260901134509 15 95 0.0 0.0 0.15 0.51 0.51 94 1022.2
20260901133007 15 94 0.0 0.0 0.18 0.46 0.46 94 1022.3
20260901131506 14 94 0.0 0.0 0.25 0.43 0.43 94 1022.5
20260901130004 14 94 0.0 0.0 0.30 0.41 0.41 94 1022.5
20260901124505 14 94 0.0 0.0 0.33 0.36 0.36 94 1022.6
20260901123004 14 94 0.0 0.0 0.28 0.28 0.28 93 1022.8
20260901121609 14 94 0.0 0.0 0.18 0.18 0.18 93 1022.7
20260901120059 14 94 0.0 0.0 0.10 0.10 0.10 93 1022.3
20260901114558 14 94 0.0 0.0 0.03 0.03 0.03 93 1022.3
20260901113104 14 94 0.0 0.0 0.00 0.00 0.00 93 1021.9
20260901111556 13 94 0.0 0.0 0.00 0.00 0.00 93 1022.1
20260901110103 13 94 0.0 0.0 0.00 0.00 0.00 93 1022.0
20260901104600 13 94 0.0 0.0 0.00 0.00 0.00 93 1021.9
20260901103054 13 94 0.0 0.0 0.00 0.00 0.00 93 1021.6
20260901101550 13 94 0.0 0.0 0.00 0.00 0.00 93 1021.4